Regional Weather Roundup
Issued by NWS

Home | Current Version | Previous Version | Graphics & Text | Print | Product List | Glossary On
Versions: 1 2 3 4 5 6 7 8 9 10 11 12 13 14 15 16 17 18 19 20 21 22 23 24 25 26 27 28 29 30 31 32 33 34 35 36 37 38 39 40 41 42 43 44 45 46 47 48 49 50
445
ASUS44 KLIX 231810
RWRLA
LOUISIANA WEATHER ROUNDUP
NATIONAL WEATHER SERVICE NEW ORLEANS LA
1200 PM CST SUN NOV 23 2014

NOTE: "FAIR" INDICATES FEW OR NO CLOUDS BELOW 12,000 FEET WITH NO
      SIGNIFICANT WEATHER AND/OR OBSTRUCTIONS TO VISIBILITY.
      SKY/WX - SKY CONDITION AND SIGNIFICANT WEATHER.
      TMP - AIR TEMPERATURE.    DP   - DEWPOINT TEMPERATURE.
      RH  - RELATIVE HUMIDITY.  PRES - PRESSURE.
      HX  - HEAT INDEX.         WCI  - WIND CHILL INDEX.

*  THESE STATIONS ARE NOT NWS OR FAA STATIONS AND ARE NOT UNDER
   NWS QUALITY CONTROL.

LAZ040-048-061>063-065-066-069-231900-
SOUTHEAST LOUISIANA

CITY           SKY/WX    TMP DP  RH WIND       PRES   REMARKS
N.O. AUDUBON     N/A     73  64  73 MISG        N/A
6HR MIN TEMP:  62; 6HR MAX TEMP:  73; 6HR PCP:  0.18;

N.O. INTL ARPT PTSUNNY   70  60  70 SW18      29.69S
6HR MIN TEMP:  63; 6HR MAX TEMP:  70; 6HR PCP:  0.35;

N.O. LAKEFRONT MOSUNNY   69  60  73 SW22      29.69F
6HR MIN TEMP:  63; 6HR MAX TEMP:  69; 6HR PCP:  0.29;

N.O. DOWNTOWN* CLOUDY    68  59  73 S16G26    29.70F
6HR MIN TEMP:  63; 6HR MAX TEMP:  68; 6HR PCP:  0.53;

SLIDELL        CLOUDY    67  60  78 SW14G29   29.68F
6HR MIN TEMP:  63; 6HR MAX TEMP:  69; 6HR PCP:  0.42;

BATON ROUGE    CLOUDY    70  61  73 SW18G26   29.64F
6HR MIN TEMP:  63; 6HR MAX TEMP:  70; 6HR PCP:  0.23;

BOOTHVILLE     CLOUDY    65  62  90 SW21G29   29.72F
6HR MIN TEMP:  61; 6HR MAX TEMP:  69; 6HR PCP:  0.29;

BELLE CHASSE   PTSUNNY   71  61  70 SW22G30   29.69F
6HR MIN TEMP:  62; 6HR MAX TEMP:  71; 6HR PCP:  0.11;

BOGALUSA*        N/A     68  60  75 SW17      29.68R
6HR MIN TEMP:  63; 6HR MAX TEMP:  69; 6HR PCP:  0.14;

NEW ROADS*     CLOUDY    69  61  77 S10G18    29.62F
6HR MIN TEMP:  63; 6HR MAX TEMP:  69; 6HR PCP:  0.07;

GONZALES*      CLOUDY    71  62  73 SW14G20   29.67F
6HR MIN TEMP:  62; 6HR MAX TEMP:  71; 6HR PCP:  0.10;

HAMMOND*       CLOUDY    70  59  68 SW9       29.67F
HOUMA*         PTSUNNY   72  63  73 S17G25    29.69F
PORT FOURCHON* CLEAR     70  63  78 SW14G28   29.76F

$$

LAZ041-044-053-054-231900-
SOUTHWEST LOUISIANA

CITY           SKY/WX    TMP DP  RH WIND       PRES   REMARKS
LAKE CHARLES   SUNNY     68  59  73 SW18G25   29.62F
6HR MIN TEMP:  61; 6HR MAX TEMP:  69;

LAFAYETTE      PTSUNNY   73  62  68 SW26G36   29.65F
6HR MIN TEMP:  62; 6HR MAX TEMP:  73; 6HR PCP:  0.03;

PATTERSON      CLOUDY    72  63  73 SW22G31   29.70F
6HR MIN TEMP:  61; 6HR MAX TEMP:  72;

SALT POINT       N/A     71  61  70 VRB7      29.68F
6HR MIN TEMP:  65; 6HR MAX TEMP:  71; 6HR PCP:  0.03;

NEW IBERIA     LGT RAIN  73  62  68 SW18G26   29.66F
6HR MIN TEMP:  62; 6HR MAX TEMP:  73; 6HR PCP:  0.02;

CHENAULT AIRPK MOSUNNY   70  57  64 SW21G26   29.63F

$$

LAZ027-028-231900-
CENTRAL LOUISIANA

CITY           SKY/WX    TMP DP  RH WIND       PRES   REMARKS
FORT POLK      CLOUDY    66  60  82 SW15G22   29.58F
6HR MIN TEMP:  61; 6HR MAX TEMP:  66; 6HR PCP:  0.16;

ALEXANDRIA INT LGT RAIN  67  60  78 SW13      29.55F
6HR MIN TEMP:  62; 6HR MAX TEMP:  67; 6HR PCP:  0.21;

ALEXANDRIA     PTSUNNY   69  59  70 SW15G25   29.57F
6HR MIN TEMP:  63; 6HR MAX TEMP:  69; 6HR PCP:  0.07;


$$

LAZ001-002-231900-
NORTHWEST LOUISIANA

CITY           SKY/WX    TMP DP  RH WIND       PRES   REMARKS
SHREVEPORT     PTSUNNY   69  61  75 SW15      29.50F
6HR MIN TEMP:  62; 6HR MAX TEMP:  69; 6HR PCP:  0.24;

BARKSDALE AFB  MOSUNNY   68  62  81 SW13      29.50F
6HR MIN TEMP:  61; 6HR MAX TEMP:  68; 6HR PCP:  0.18;

DTN SHREVEPORT MOSUNNY   68  60  75 SW14      29.49F
6HR MIN TEMP:  62; 6HR MAX TEMP:  68; 6HR PCP:  0.17;


$$

LAZ014-016-231900-
NORTHEAST LOUISIANA

CITY           SKY/WX    TMP DP  RH WIND       PRES   REMARKS
MONROE         LGT RAIN  63  62  97 SW14      29.50F
6HR MIN TEMP:  62; 6HR MAX TEMP:  64; 6HR PCP:  0.59;

TALLULAH       CLOUDY    65  61  87 S12G23    29.52F
6HR MIN TEMP:  61; 6HR MAX TEMP:  66; 6HR PCP:  0.18;


$$




USA.gov is the U.S. government's official web portal to all federal, state and local government web resources and services.